Flag for Argentina Weather past 2 weeks in Zárate, Buenos Aires, Argentina

Now
75 °F

Partly sunny.


Feels Like: 77 °F
Forecast: 66 / 82 °F
Wind: 10 mph from East

Location: Buenos Aires Airport

Current Time: Mar 1, 2015 at 12:37:17 PM

Latest Report: Mar 1, 2015 at 12:00 PM


Visibility: N/A

Pressure: 29.95 "Hg

Humidity: 69%

Dew point: 64 °F

Location of ZárateLocation

Historic Weather in Zárate — Graph

°F

Zárate temperature yesterday

Maximum temperature yesterday: 73 °F (at 3:00 PM)
Minimum temperature yesterday: 64 °F (at 4:00 AM)
Average temperature yesterday: 69 °F

Past Weeks' High & Low Weather Summary

 TemperatureHumidityPressure
High86 °F (Feb 24, 3:00 PM)94% (Feb 18, 9:00 PM)30.15 "Hg (Feb 18, 9:00 PM)
Low57 °F (Feb 20, 7:00 AM)36% (Feb 19, 6:00 PM)29.62 "Hg (Feb 18, 4:00 PM)
Average74 °F71%29.97 "Hg
* Reported Feb 14 11:00 AM — Mar 1 11:00 AM, Zárate, Weather by CustomWeather, © 2015

Note: Actual official high and low records may vary slightly from our data, if they occured in-between our weather recording intervals... More about our weather records

Advertising

Zárate weather history for previous 24 hours

 ConditionsComfort  
Time TempWeatherWind HumidityBarometerVisibility
11:00 AM
Sun, Mar 1
73 °FPartly sunny.15 mph74%29.95 "HgN/A
10:00 AM73 °FPartly sunny.15 mph74%29.95 "HgN/A
9:00 AM72 °FPartly sunny.9 mph78%29.98 "HgN/A
8:00 AM72 °FSunny.13 mph78%29.98 "Hg10 mi
7:00 AM70 °FScattered clouds.8 mph78%29.95 "HgN/A
6:00 AM72 °FScattered clouds.6 mph73%29.95 "HgN/A
5:00 AM72 °FPassing clouds.9 mph69%29.95 "HgN/A
4:00 AM72 °FPassing clouds.9 mph69%29.95 "HgN/A
3:00 AM72 °FClear.3 mph73%29.98 "Hg10 mi
2:00 AM72 °FClear.8 mph73%29.98 "Hg10 mi
1:00 AM72 °FPassing clouds.12 mph73%29.98 "HgN/A
12:00 AM73 °FClear.7 mph69%30.04 "Hg10 mi
11:00 PM
Sat, Feb 28
72 °FClear.13 mph73%30.01 "Hg10 mi
10:00 PM72 °FPassing clouds.13 mph69%30.01 "HgN/A
9:00 PM72 °FClear.13 mph69%30.01 "Hg10 mi
8:00 PM72 °FPassing clouds.8 mph65%30.01 "HgN/A
7:00 PM72 °FClear.8 mph65%30.01 "Hg10 mi
6:00 PM72 °FSunny.8 mph61%30.01 "Hg10 mi
5:00 PM72 °FSunny.7 mph53%30.01 "Hg10 mi
4:00 PM73 °FSunny.7 mph47%30.04 "Hg10 mi
3:00 PM73 °FSunny.5 mph50%30.04 "Hg10 mi
2:00 PM72 °FSunny.5 mph50%30.07 "Hg10 mi
1:00 PM72 °FSunny.8 mph50%30.09 "Hg10 mi
12:00 PM70 °FSunny.7 mph53%30.09 "Hg10 mi
Weather by CustomWeather, © 2015

See weather overviewHow to use our weather pages